Home   Weather   Calgary   Past weeks
Flag for Canada

Past Weather in Calgary, Alberta, Canada — Yesterday and Last 2 Weeks

Now
34 °F

Passing clouds.


Feels Like: 25 °F
Forecast: 30 / 40 °F
Wind: 12 mph from Southwest

Location: Calgary International

Current Time: Dec 18, 2018 at 8:53:56 am

Latest Report: Dec 18, 2018 at 8:00 am


Visibility: 20 mi

Pressure: 29.55 "Hg (25.88 "Hg at 1063m altitude)

Humidity: 56%

Dew Point: 19 °F

Location of CalgaryLocation

Past Weather in Calgary — Graph

°F

Calgary Temperature Yesterday

Maximum temperature yesterday: 48 °F (at 12:00 pm)
Minimum temperature yesterday: 23 °F (at 6:00 am)
Average temperature yesterday: 35 °F

High & Low Weather Summary for the Past Weeks

 TemperatureHumidityPressure
High48 °F (Dec 14, 11:00 am)92% (Dec 5, 10:00 pm)30.47 "Hg (Dec 5, 10:00 pm)
Low1 °F (Dec 6, 2:00 am)26% (Dec 12, 1:00 pm)29.35 "Hg (Dec 12, 12:00 am)
Average29 °F57%29.98 "Hg
* Reported Dec 3 7:13 am — Dec 18 7:06 am, Calgary. Weather by CustomWeather, © 2018

Note: Actual official high and low records may vary slightly from our data, if they occured in-between our weather recording intervals... More about our weather records

Advertising

Calgary Weather History for the Previous 24 Hours

Scroll right to see more
 ConditionsComfort  
Time TempWeatherWind HumidityBarometerVisibility
7:06 am
Tue, Dec 18
36 °FPassing clouds.8 mph56%29.56 "Hg15 mi
6:00 am36 °FPassing clouds.9 mph48%29.54 "Hg15 mi
5:00 am32 °FPassing clouds.9 mph60%29.56 "Hg15 mi
4:00 am30 °FPassing clouds.5 mph64%29.58 "Hg15 mi
3:00 am32 °FPartly cloudy.2 mph60%29.60 "Hg15 mi
2:00 am32 °FPassing clouds.7 mph55%29.65 "Hg15 mi
1:00 am34 °FPassing clouds.8 mph56%29.65 "Hg15 mi
11:00 pm
Mon, Dec 17
34 °FPartly cloudy.8 mph56%29.72 "Hg15 mi
10:00 pm34 °FPassing clouds.8 mph56%29.76 "Hg15 mi
9:00 pm34 °FPassing clouds.6 mph60%29.79 "Hg15 mi
8:00 pm36 °FPartly cloudy.3 mph56%29.82 "Hg15 mi
7:00 pm36 °FPassing clouds.5 mph56%29.85 "Hg15 mi
6:48 pm36 °FPassing clouds.8 mph56%29.85 "Hg15 mi
6:00 pm39 °FPassing clouds.6 mph48%29.84 "Hg15 mi
5:00 pm43 °FPassing clouds.9 mph39%29.83 "Hg15 mi
4:00 pm45 °FPassing clouds.8 mph37%29.81 "Hg20 mi
3:00 pm46 °FPassing clouds.17 mph37%29.79 "Hg30 mi
2:00 pm48 °FPassing clouds.8 mph37%29.78 "Hg40 mi
1:00 pm48 °FPassing clouds.13 mph37%29.78 "Hg40 mi
12:00 pm48 °FPassing clouds.14 mph34%29.76 "Hg40 mi
11:00 am46 °FPassing clouds.7 mph37%29.78 "Hg40 mi
10:00 am37 °FPassing clouds.5 mph52%29.80 "Hg40 mi
9:00 am36 °FPassing clouds.8 mph60%29.78 "Hg40 mi
8:00 am27 °FPassing clouds.7 mph69%29.79 "Hg15 mi
Weather by CustomWeather, © 2018

See weather overview